weather.gov     
National Weather Service

Regional Weather Roundup
NWS Homepage
This page is being discontinued on March 12, 2014.
The same data is available at this site. Please update your bookmarks.
Thank you, and we apologize for the inconvenience.
Please send an email to SR-SRH.Webmaster@noaa.gov with any concerns.


Current Version
Previous Version:    01  02  03  04  05  06  07  08  09  10  11  12  13  14  15  16  17  18  19  20  21  22  23  24  25  26  
[Printable]
029
ASUS41 KPHI 011910
RWRPHI

REGIONAL WEATHER ROUNDUP
NATIONAL WEATHER SERVICE MOUNT HOLLY NJ
300 PM EDT MON SEP 01 2014

NOTE:  "FAIR" INDICATES FEW OR NO CLOUDS BELOW 12,000 FEET WITH NO
SIGNIFICANT WEATHER AND/OR OBSTRUCTIONS TO VISIBILITY.

 * = STATION DOES NOT REPORT PRECIPITATION (E.G. RAIN, SNOW, ETC.)
        OR FOG.

NJZ015>026-012000-
SOUTHERN NEW JERSEY

CITY           SKY/WX    TMP DP  RH WIND       PRES   REMARKS
POMONA         PTSUNNY   86  73  65 SE8       29.97F HX  93
RIO GRANDE*    MOSUNNY   88  72  58 S12       29.99F HX  94
MILLVILLE      PTSUNNY   86  73  65 SW5       29.97F HX  93
WRIGHTSTOWN    PTSUNNY   85  73  65 W8        29.95S HX  92
MOUNT HOLLY    PTSUNNY   87  72  60 SW6       29.96F HX  93
TRENTON        CLOUDY    85  69  58 SW5       29.96F

$$
NJZ001>014-012000-
NORTHERN NEW JERSEY

CITY           SKY/WX    TMP DP  RH WIND       PRES   REMARKS
SUSSEX         PTSUNNY   86  70  58 SW3       29.96F HX  90
ANDOVER*         N/A     84  70  62 SW6       29.97F
MORRISTOWN     PTSUNNY   88  70  55 W8        29.96F HX  92
NEWARK         PTSUNNY   91  67  44 SW7       29.94F HX  94
TETERBORO      PTSUNNY   87  69  54 S7        29.93F HX  91
CALDWELL       PTSUNNY   87  69  54 VRB6      29.95F HX  91
SOMERVILLE     PTSUNNY   88  69  53 VRB3      29.93F HX  92
ALLAIRE*       MOSUNNY   86  72  62 W5        29.97S HX  92
TOMS RIVER*    MOSUNNY   90  72  55 W9        29.97F HX  96

$$
PAZ043-044-047-054-055-060>062-066>071-012000-
EASTERN PENNSYLVANIA

CITY           SKY/WX    TMP DP  RH WIND       PRES   REMARKS
PHILADELPHIA   MOSUNNY   88  70  55 SW10      29.96F HX  93
NORTH PHILA    CLOUDY    87  69  54 W7        29.97F HX  91
BLUE BELL      MOSUNNY   86  72  62 W5        29.97F HX  92
DOYLESTOWN     CLOUDY    84  70  62 SW8       29.96F
QUAKERTOWN*    PTSUNNY   84  72  65 MISG      29.98F
POTTSTOWN      CLOUDY    83  70  64 VRB3      29.98F
LANCASTER      LGT RAIN  82  70  66 NW12      29.98F
COATESVILLE    PTSUNNY   82  77  83 CALM      30.00F HX  91
READING        PTSUNNY   86  70  58 SW7       29.96F HX  90
ALLENTOWN      PTSUNNY   88  70  55 SW12      29.96F HX  93
MOUNT POCONO   CLOUDY    78  66  66 SW9       30.04F
HAZLETON       PTSUNNY   81  68  65 SW3       30.05S
WILKES BARRE   PTSUNNY   83  67  58 S7        29.98F

$$
DEZALL-MDZ008-012-015-019-020-012000-
DELAWARE AND EASTERN MARYLAND

CITY           SKY/WX    TMP DP  RH WIND       PRES   REMARKS
WILMINGTON     PTSUNNY   86  72  62 SE6       29.97F HX  92
DOVER          MOSUNNY   89  74  59 S8        29.96F HX  98
GEORGETOWN     MOSUNNY   91  73  55 S10       29.98F HX  99
EASTON         MOSUNNY   91  73  55 W7        30.01F HX 100
PATUXENT       MOSUNNY   93  69  45 SW10      29.96F HX  98
OCEAN CITY     MOSUNNY   83  76  79 S7        29.99F HX  91
WALLOPS ISLAND MOSUNNY   86  78  77 S13       29.99F HX  98
SALISBURY      SUNNY     92  71  50 SW10G20   29.98F HX  98

$$
PAZ001-021-NYZ056-072-MDZ011-DCZ001-012000-
OTHER NEARBY LOCATIONS

CITY           SKY/WX    TMP DP  RH WIND       PRES   REMARKS
HARRISBURG     MOSUNNY   86  71  60 CALM      29.95F HX  91
STATE COLLEGE  LGT RAIN  73  70  88 SW7       30.01F
WILLIAMSPORT   CLOUDY    81  69  67 S5        29.95F
BINGHAMTON     PTSUNNY   76  68  76 S6        30.00F
NEW YORK CITY  PTSUNNY   85  69  58 CALM      29.98F
BALTIMORE      PTSUNNY   87  70  56 S7        29.96F HX  92
WASHINGTON DC  PTSUNNY   91  74  57 VRB5      29.96F HX 100

$$




U.S. Dept. of Commerce
NOAA National Weather Service
1325 East West Highway
Silver Spring, MD 20910
E-mail: w-nws.webmaster@noaa.gov
Page last modified: May 16, 2007
NATIONAL WEATHER SERVICE: for Safety, for Work, for Fun - FOR LIFE